FW8621 Weather Reports


time (UTC)temp
C
wind
direction
speed
KPH
gust
KPH
rain 1hr
cm
rain 24hr
cm
rain mn
cm
humidity
%
barometer
mb
20260508004601 15 0 0.0 1.6 0.00 0.00 0.00 89 1016.3
20260508003102 15 0 0.0 0.0 0.00 0.00 0.00 90 1016.3
20260508001559 15 0 0.0 0.0 0.00 0.00 0.00 89 1016.5
20260508000101 15 0 0.0 0.0 0.00 0.00 0.00 88 1016.7
20260507234610 15 0 0.0 0.0 0.00 0.00 0.00 88 1017.0
20260507233059 15 0 0.0 0.0 0.00 0.00 0.00 88 1017.1
20260507231600 15 0 0.0 0.0 0.00 0.00 0.00 88 1017.2
20260507230059 15 0 0.0 0.0 0.00 0.00 0.00 89 1017.2
20260507224601 15 0 0.0 0.0 0.00 0.00 0.00 88 1017.2
20260507223102 15 0 0.0 1.6 0.00 0.00 0.00 89 1017.1
20260507221601 15 0 0.0 1.6 0.00 0.00 0.00 90 1016.9
20260507220059 16 0 0.0 1.6 0.00 0.00 0.00 89 1016.9
20260507214559 16 134 0.0 1.6 0.00 0.00 0.00 89 1016.9
20260507213101 16 134 0.0 1.6 0.00 0.00 0.00 87 1017.0
20260507211601 16 0 0.0 1.6 0.00 0.00 0.00 86 1017.1
20260507210059 16 0 0.0 1.6 0.00 0.00 0.00 85 1017.0
20260507204600 16 0 0.0 0.0 0.00 0.00 0.00 84 1017.2
20260507203100 16 0 0.0 0.0 0.00 0.00 0.00 84 1017.2
20260507201609 17 0 0.0 1.6 0.00 0.00 0.00 83 1017.3
20260507200114 17 0 0.0 0.0 0.00 0.00 0.00 82 1017.1
20260507194604 17 0 0.0 0.0 0.00 0.00 0.00 81 1017.2
20260507193058 17 0 0.0 0.0 0.00 0.00 0.00 81 1017.1
20260507191559 17 0 0.0 0.0 0.00 0.00 0.00 83 1017.1
20260507184602 17 0 0.0 1.6 0.00 0.00 0.00 82 1016.9
20260507183100 18 124 0.0 1.6 0.00 0.00 0.00 81 1016.7
20260507181600 18 140 0.0 1.6 0.00 0.00 0.00 79 1016.6
20260507180059 19 0 0.0 1.6 0.00 0.00 0.00 77 1016.5
20260507174607 20 0 0.0 6.4 0.00 0.00 0.00 75 1016.3
20260507173102 20 139 0.0 6.4 0.00 0.00 0.00 70 1016.2
20260507171605 22 130 0.0 8.0 0.00 0.00 0.00 64 1016.1
20260507170058 24 131 0.0 4.8 0.00 0.00 0.00 58 1016.0
20260507164600 25 51 0.0 6.4 0.00 0.00 0.00 55 1016.0
20260507163124 25 280 0.0 9.7 0.00 0.00 0.00 53 1016.0
20260507161558 25 120 1.6 8.0 0.00 0.00 0.00 56 1016.1
20260507160101 25 0 0.0 8.0 0.00 0.00 0.00 57 1015.9
20260507154601 25 163 0.0 8.0 0.00 0.00 0.00 58 1016.0
20260507153058 25 135 0.0 8.0 0.00 0.00 0.00 58 1015.9
20260507151557 25 141 1.6 8.0 0.00 0.00 0.00 61 1016.1
20260507150100 24 139 3.2 8.0 0.00 0.00 0.00 61 1015.9
20260507144617 23 141 1.6 9.7 0.00 0.00 0.00 61 1016.1
20260507143104 25 0 1.6 8.0 0.00 0.00 0.00 61 1016.1
20260507141626 23 134 0.0 3.2 0.00 0.00 0.00 67 1016.1
20260507140104 22 0 0.0 3.2 0.00 0.00 0.00 66 1016.1
20260507134601 22 0 0.0 1.6 0.00 0.00 0.00 67 1016.0
20260507133100 23 321 0.0 3.2 0.00 0.00 0.00 69 1016.1
20260507131600 23 322 0.0 3.2 0.00 0.00 0.00 66 1016.2
20260507130110 23 353 0.0 3.2 0.00 0.00 0.00 69 1016.2
20260507124612 22 0 0.0 1.6 0.00 0.00 0.00 71 1016.2
20260507123100 23 0 0.0 3.2 0.00 0.00 0.00 70 1016.1
20260507121600 23 27 0.0 1.6 0.00 0.00 0.00 70 1015.9
20260507120058 23 0 0.0 1.6 0.00 0.00 0.00 69 1016.0
20260507114600 22 0 0.0 1.6 0.00 0.00 0.00 68 1016.0
20260507113058 22 0 0.0 3.2 0.00 0.00 0.00 70 1016.2
20260507111557 22 359 0.0 1.6 0.00 0.00 0.00 70 1016.3
20260507110059 22 321 0.0 1.6 0.00 0.00 0.00 67 1016.4
20260507104608 22 0 0.0 1.6 0.00 0.00 0.00 71 1016.4
20260507103113 22 0 0.0 3.2 0.00 0.00 0.00 72 1016.5
20260507101559 21 0 0.0 1.6 0.00 0.00 0.00 74 1016.6
20260507100058 21 0 0.0 1.6 0.00 0.00 0.00 73 1016.6
20260507094601 21 0 0.0 1.6 0.00 0.00 0.00 72 1016.8
20260507093101 21 0 0.0 3.2 0.00 0.00 0.00 66 1016.7
20260507091606 21 0 0.0 1.6 0.00 0.00 0.00 67 1016.6
20260507090100 20 142 0.0 4.8 0.00 0.00 0.00 67 1016.7
20260507084601 21 262 0.0 3.2 0.00 0.00 0.00 66 1016.7
20260507083100 20 183 0.0 1.6 0.00 0.00 0.00 71 1016.5
20260507081559 19 0 0.0 3.2 0.00 0.00 0.00 74 1016.3
20260507080059 18 0 0.0 0.0 0.00 0.00 0.00 77 1016.4
20260507074558 18 0 0.0 0.0 0.00 0.00 0.00 80 1016.3
20260507073103 17 0 0.0 1.6 0.00 0.00 0.00 82 1016.5
20260507071558 17 0 0.0 0.0 0.00 0.00 0.00 84 1016.5
20260507064557 17 0 0.0 0.0 0.00 0.00 0.00 87 1016.2
20260507063058 17 0 0.0 0.0 0.00 0.00 0.00 89 1016.3
20260507061603 16 0 0.0 0.0 0.00 0.00 0.00 90 1016.3
20260507060104 16 0 0.0 0.0 0.00 0.00 0.00 90 1016.3
20260507054609 16 0 0.0 0.0 0.00 0.00 0.00 91 1016.4
20260507053103 16 0 0.0 0.0 0.00 0.00 0.00 91 1016.2
20260507051601 16 0 0.0 0.0 0.00 0.00 0.00 91 1016.0
20260507050106 15 0 0.0 0.0 0.00 0.00 0.00 91 1015.8
20260507044607 15 0 0.0 0.0 0.00 0.00 0.00 91 1015.6
20260507043106 15 0 0.0 0.0 0.00 0.00 0.00 91 1015.5
20260507041608 15 0 0.0 0.0 0.00 0.00 0.00 91 1015.6
20260507040103 16 0 0.0 0.0 0.00 0.00 0.00 91 1015.3
20260507034613 16 0 0.0 0.0 0.00 0.00 0.00 91 1015.3
20260507033107 16 0 0.0 0.0 0.00 0.00 0.00 91 1015.4
20260507031608 16 0 0.0 0.0 0.00 0.00 0.00 91 1015.5
20260507030106 16 0 0.0 0.0 0.00 0.00 0.00 90 1015.2
20260507024611 16 0 0.0 0.0 0.00 0.00 0.00 89 1015.0
20260507023059 16 0 0.0 0.0 0.00 0.00 0.00 90 1015.0
20260507021558 16 0 0.0 0.0 0.00 0.00 0.00 90 1015.0
20260507014603 16 0 0.0 0.0 0.00 0.00 0.00 89 1014.7
20260507013103 16 0 0.0 0.0 0.00 0.00 0.00 89 1014.5
20260507011559 16 0 0.0 0.0 0.00 0.00 0.00 89 1014.2
20260507010100 16 0 0.0 0.0 0.00 0.00 0.00 88 1014.2